BAW7236 ESSA-EHAM

Flight info

Callsign BAW7236
Flight time N/A
Altitude 34000
Route PETEV N872 ELPAX DCT KULUD Z703 EKDIV DCT AMRAK DCT WANZA N872 KUBAT T200 BLUFA
Aircraft A320/M-SDE3FGHIRWY/LB1

Departure

Time N/A
Airport Stockholm-Arlanda Airport (ESSA)

Arrival

Time 2026-05-08 05:40
Airport Amsterdam Airport Schiphol (EHAM)
Time Latitude Longitude Altitude Speed Heading
2026-05-08 05:16 52.80403 6.25653 14703 ft 277 kts 236°
2026-05-08 05:16 52.79306 6.23039 14377 ft 276 kts 235°
2026-05-08 05:16 52.78211 6.20443 14079 ft 274 kts 235°
2026-05-08 05:17 52.77115 6.17847 13530 ft 280 kts 235°
2026-05-08 05:17 52.75981 6.15163 12848 ft 290 kts 235°
2026-05-08 05:17 52.74823 6.12419 12397 ft 291 kts 235°
2026-05-08 05:17 52.73667 6.09678 12018 ft 290 kts 235°
2026-05-08 05:18 52.72517 6.06956 11649 ft 288 kts 235°
2026-05-08 05:18 52.71371 6.04253 11288 ft 287 kts 235°
2026-05-08 05:18 52.70227 6.01562 10935 ft 286 kts 234°
2026-05-08 05:18 52.69088 5.98888 10582 ft 284 kts 234°
2026-05-08 05:19 52.67955 5.96230 10244 ft 283 kts 234°
2026-05-08 05:19 52.66825 5.93572 9888 ft 282 kts 234°
2026-05-08 05:19 52.65704 5.90932 9508 ft 281 kts 234°
2026-05-08 05:19 52.64586 5.88304 9126 ft 280 kts 234°
2026-05-08 05:20 52.63469 5.85682 8747 ft 279 kts 234°
2026-05-08 05:20 52.62362 5.83085 8521 ft 273 kts 234°
2026-05-08 05:20 52.61288 5.80573 8391 ft 263 kts 234°
2026-05-08 05:20 52.60252 5.78150 8254 ft 254 kts 234°
2026-05-08 05:21 52.59253 5.75815 8131 ft 245 kts 234°
2026-05-08 05:21 52.58289 5.73566 7969 ft 237 kts 234°
2026-05-08 05:21 52.57354 5.71389 7679 ft 236 kts 234°
2026-05-08 05:21 52.56404 5.69183 7353 ft 236 kts 234°
2026-05-08 05:22 52.55456 5.66981 7066 ft 236 kts 235°
2026-05-08 05:22 52.54508 5.64784 6759 ft 235 kts 235°
2026-05-08 05:22 52.53563 5.62594 6456 ft 235 kts 235°
2026-05-08 05:22 52.52619 5.60404 6121 ft 235 kts 235°
2026-05-08 05:23 52.51675 5.58221 5812 ft 234 kts 235°
2026-05-08 05:23 52.50830 5.55947 5505 ft 233 kts 246°
2026-05-08 05:23 52.50160 5.53534 5184 ft 232 kts 246°
2026-05-08 05:23 52.49488 5.51128 4865 ft 232 kts 246°
2026-05-08 05:24 52.48812 5.48725 4555 ft 231 kts 245°
2026-05-08 05:24 52.48205 5.46293 4230 ft 230 kts 259°
2026-05-08 05:24 52.48181 5.43706 3940 ft 227 kts 272°
2026-05-08 05:24 52.48088 5.41114 3583 ft 229 kts 263°
2026-05-08 05:25 52.47884 5.38527 3463 ft 229 kts 262°
2026-05-08 05:25 52.47667 5.35933 3687 ft 230 kts 262°
2026-05-08 05:25 52.47445 5.33337 3940 ft 230 kts 262°
2026-05-08 05:25 52.47218 5.30740 4100 ft 230 kts 262°
2026-05-08 05:26 52.46989 5.28146 4135 ft 230 kts 262°
2026-05-08 05:26 52.46696 5.25607 4140 ft 229 kts 255°
2026-05-08 05:26 52.46239 5.23106 4134 ft 229 kts 252°
2026-05-08 05:26 52.45754 5.20619 4125 ft 229 kts 252°
2026-05-08 05:27 52.45265 5.18135 4126 ft 229 kts 252°
2026-05-08 05:27 52.44775 5.15652 4137 ft 229 kts 252°
2026-05-08 05:27 52.44286 5.13177 4140 ft 228 kts 252°
2026-05-08 05:27 52.43783 5.10710 4125 ft 228 kts 249°
2026-05-08 05:28 52.43194 5.08301 4115 ft 227 kts 247°
2026-05-08 05:28 52.42583 5.05911 4116 ft 227 kts 247°
2026-05-08 05:28 52.41971 5.03519 4110 ft 228 kts 247°
2026-05-08 05:28 52.41361 5.01133 4119 ft 227 kts 247°
2026-05-08 05:29 52.40750 4.98744 4117 ft 227 kts 247°
2026-05-08 05:29 52.40140 4.96360 4172 ft 227 kts 249°
2026-05-08 05:29 52.39503 4.93982 4132 ft 228 kts 247°
2026-05-08 05:29 52.38852 4.91619 4117 ft 228 kts 247°
2026-05-08 05:30 52.38197 4.89252 4114 ft 228 kts 246°
2026-05-08 05:30 52.37542 4.86889 4111 ft 228 kts 246°
2026-05-08 05:30 52.36888 4.84526 4107 ft 228 kts 247°
2026-05-08 05:30 52.36235 4.82169 4111 ft 227 kts 247°
2026-05-08 05:31 52.35582 4.79818 4138 ft 227 kts 246°
2026-05-08 05:31 52.34927 4.77462 4139 ft 228 kts 247°
2026-05-08 05:31 52.34271 4.75103 4135 ft 228 kts 246°
2026-05-08 05:31 52.33618 4.72747 4139 ft 227 kts 247°
2026-05-08 05:32 52.32961 4.70393 4140 ft 227 kts 245°
2026-05-08 05:32 52.32193 4.68132 4138 ft 228 kts 239°
2026-05-08 05:32 52.31339 4.65948 4137 ft 228 kts 238°
2026-05-08 05:32 52.30475 4.63780 4138 ft 228 kts 238°
2026-05-08 05:33 52.29607 4.61608 4138 ft 228 kts 238°
2026-05-08 05:33 52.28739 4.59440 4138 ft 228 kts 238°
2026-05-08 05:33 52.27871 4.57273 4017 ft 229 kts 238°
2026-05-08 05:33 52.26992 4.55080 3629 ft 233 kts 238°
2026-05-08 05:34 52.26108 4.52870 3241 ft 230 kts 237°
2026-05-08 05:34 52.25246 4.50714 2856 ft 224 kts 237°
2026-05-08 05:34 52.24228 4.48901 2472 ft 218 kts 209°
2026-05-08 05:34 52.22813 4.48287 2088 ft 209 kts 173°
2026-05-08 05:35 52.21504 4.48861 2027 ft 181 kts 143°
2026-05-08 05:35 52.20749 4.50360 2028 ft 171 kts 107°
2026-05-08 05:35 52.20692 4.52245 1999 ft 168 kts 72°
2026-05-08 05:35 52.21251 4.53901 2006 ft 168 kts 57°
2026-05-08 05:36 52.21833 4.55395 1991 ft 145 kts 57°
2026-05-08 05:36 52.22352 4.56732 2004 ft 138 kts 57°
2026-05-08 05:36 52.22865 4.58051 2003 ft 138 kts 57°
2026-05-08 05:36 52.23386 4.59359 2013 ft 137 kts 57°
2026-05-08 05:37 52.23895 4.60683 1953 ft 137 kts 58°
2026-05-08 05:37 52.24388 4.62017 1776 ft 137 kts 59°
2026-05-08 05:37 52.24877 4.63347 1618 ft 137 kts 57°
2026-05-08 05:37 52.25379 4.64657 1429 ft 137 kts 58°
2026-05-08 05:38 52.25898 4.65953 1311 ft 136 kts 56°
2026-05-08 05:38 52.26410 4.67243 1077 ft 135 kts 59°
2026-05-08 05:38 52.26904 4.68544 850 ft 135 kts 59°
2026-05-08 05:38 52.27404 4.69819 639 ft 133 kts 58°
2026-05-08 05:39 52.27897 4.71107 430 ft 134 kts 60°
2026-05-08 05:39 52.28387 4.72388 234 ft 133 kts 56°
2026-05-08 05:39 52.28882 4.73668 53 ft 136 kts 59°
2026-05-08 05:39 52.29357 4.74881 -2 ft 102 kts 58°
2026-05-08 05:40 52.29584 4.75462 -3 ft 39 kts 59°
2026-05-08 05:40 52.29711 4.75731 -4 ft 26 kts 32°
2026-05-08 05:40 52.29838 4.75846 -4 ft 16 kts 28°
2026-05-08 05:40 52.29940 4.75956 -5 ft 17 kts 42°
2026-05-08 05:41 52.30019 4.75934 -3 ft 10 kts 327°
2026-05-08 05:41 52.30082 4.75961 -3 ft 11 kts 50°
2026-05-08 05:41 52.30127 4.76080 -3 ft 14 kts 57°
2026-05-08 05:41 52.30184 4.76225 0 ft 10 kts 57°
2026-05-08 05:42 52.30255 4.76213 -1 ft 12 kts 329°
2026-05-08 05:42 52.30298 4.76211 -2 ft 9 kts 38°
2026-05-08 05:42 52.30317 4.76256 -2 ft 0 kts 58°